Orbital Elements at Epoch 2459200.5 (2020-Dec-17.0) TDB
Reference: JPL 24 (heliocentric ecliptic J2000)
Element | Value | Uncertainty (1-sigma) | Units |
e | .1577554616997018 | 4.7131e-08 | |
a | 2.599483069762428 | 1.3817e-08 | au |
q | 2.189400417911498 | 1.2144e-07 | au |
i | 14.46261884208937 | 4.7016e-06 | deg |
node | 6.409489778061502 | 1.3739e-05 | deg |
peri | 324.9546703995514 | 1.87e-05 | deg |
M | 130.0619159719905 | 1.2586e-05 | deg |
tp | 2458647.434506126584 (2019-Jun-12.93450613) | 5.3457e-05 | TDB |
period | 1530.836881084451 4.19 | 1.2205e-05 3.342e-08 | d yr |
n | .2351654865703096 | 1.8749e-09 | deg/d |
Q | 3.009565721613358 | 1.5997e-08 | au |
|
| | Orbit Determination Parameters
Additional Information
|